timestamp,surface_pressure_avg,surface_temp_avg,battery_voltage,lat,long
2018-07-21 00:00:00+00:00,212.7014,13.54,13.21,47.84626,-54.09684
2018-07-21 00:10:00+00:00,210.7298,13.5,13.13,47.84626,-54.09684
2018-07-21 00:20:00+00:00,213.0431,13.51,13.13,47.84626,-54.09684
2018-07-21 00:30:00+00:00,213.3231,13.5,13.13,47.84626,-54.09684
2018-07-21 00:40:00+00:00,213.4631,13.43,13.21,47.84626,-54.09684
2018-07-21 00:50:00+00:00,216.0715,13.5,13.21,47.84626,-54.09684
2018-07-21 01:00:00+00:00,216.9731,13.45,13.13,47.84626,-54.09684
2018-07-21 01:10:00+00:00,215.6082,13.4,13.05,47.84626,-54.09684
2018-07-21 01:20:00+00:00,214.9681,13.4,13.13,47.84626,-54.09684
2018-07-21 01:30:00+00:00,216.3181,13.39,13.13,47.84626,-54.09684
2018-07-21 01:40:00+00:00,221.8598,13.2,13.13,47.84626,-54.09684
2018-07-21 01:50:00+00:00,223.4214,13.2,13.13,47.84626,-54.09684
2018-07-21 02:00:00+00:00,225.0981,13.19,13.05,47.84626,-54.09684
2018-07-21 02:10:00+00:00,227.8231,13.2,13.05,47.84626,-54.09684
2018-07-21 02:20:00+00:00,233.1498,13.1,13.05,47.84626,-54.09684
2018-07-21 02:30:00+00:00,235.7298,13.06,13.13,47.84626,-54.09684
2018-07-21 02:40:00+00:00,237.2697,13.04,13.13,47.84626,-54.09684
2018-07-21 02:50:00+00:00,242.1797,13.0,13.13,47.84626,-54.09684
2018-07-21 03:00:00+00:00,247.7881,12.9,13.05,47.84626,-54.09684
2018-07-21 03:10:00+00:00,250.9347,12.96,12.97,47.84626,-54.09684
2018-07-21 03:20:00+00:00,258.9064,13.0,13.05,47.84626,-54.09684
2018-07-21 03:30:00+00:00,267.2647,12.9,13.05,47.84626,-54.09684
2018-07-21 03:40:00+00:00,269.4148,12.8,13.13,47.84626,-54.09684
2018-07-21 03:50:00+00:00,269.5997,12.7,13.13,47.84626,-54.09684
2018-07-21 04:00:00+00:00,276.1981,12.68,13.05,47.84626,-54.09684
2018-07-21 04:10:00+00:00,283.3746,12.6,12.97,47.84626,-54.09684
2018-07-21 04:20:00+00:00,285.2247,12.5,13.05,47.84626,-54.09684
2018-07-21 04:30:00+00:00,285.2514,12.3,13.05,47.84626,-54.09684
2018-07-21 04:40:00+00:00,289.1497,12.29,13.05,47.84626,-54.09684
2018-07-21 04:50:00+00:00,292.0214,12.2,13.05,47.84626,-54.09684
2018-07-21 05:00:00+00:00,293.1897,12.1,13.05,47.84626,-54.09684
2018-07-21 05:10:00+00:00,296.423,12.06,12.97,47.84626,-54.09684
2018-07-21 05:20:00+00:00,299.8114,12.0,13.05,47.84626,-54.09684
2018-07-21 05:30:00+00:00,301.4313,12.01,13.05,47.84626,-54.09684
2018-07-21 05:40:00+00:00,301.638,12.1,13.05,47.84626,-54.09684
2018-07-21 05:50:00+00:00,305.9614,12.18,13.05,47.84626,-54.09684
2018-07-21 06:00:00+00:00,308.0814,12.1,13.05,47.84626,-54.09684
2018-07-21 06:10:00+00:00,305.8614,12.18,12.97,47.84626,-54.09684
2018-07-21 06:20:00+00:00,305.6964,12.3,13.05,47.84626,-54.09684
2018-07-21 06:30:00+00:00,310.8846,12.37,13.05,47.84626,-54.09684
2018-07-21 06:40:00+00:00,312.9446,12.3,13.05,47.84626,-54.09684
2018-07-21 06:50:00+00:00,313.0063,12.38,13.05,47.84626,-54.09684
2018-07-21 07:00:00+00:00,312.6164,12.6,12.97,47.84626,-54.09684
2018-07-21 07:10:00+00:00,314.5963,12.6,12.97,47.84626,-54.09684
2018-07-21 07:20:00+00:00,317.3914,12.69,12.97,47.84626,-54.09684
2018-07-21 07:30:00+00:00,315.1179,12.78,12.97,47.84626,-54.09684
2018-07-21 07:40:00+00:00,310.978,12.78,13.05,47.84626,-54.09684
2018-07-21 07:50:00+00:00,310.343,12.78,13.05,47.84626,-54.09684
2018-07-21 08:00:00+00:00,309.2014,12.8,12.97,47.84626,-54.09684
2018-07-21 08:10:00+00:00,302.3747,12.88,12.89,47.84626,-54.09684
2018-07-21 08:20:00+00:00,299.4047,12.9,12.97,47.84626,-54.09684
2018-07-21 08:30:00+00:00,296.7796,12.9,12.97,47.84626,-54.09684
2018-07-21 08:40:00+00:00,287.348,12.94,13.05,47.84626,-54.09684
2018-07-21 08:50:00+00:00,274.2414,13.0,13.05,47.84626,-54.09684
2018-07-21 09:00:00+00:00,272.3047,13.0,13.05,47.84626,-54.09684
2018-07-21 09:10:00+00:00,270.1897,12.99,13.05,47.84626,-54.09684
2018-07-21 09:20:00+00:00,258.8698,13.0,13.21,47.84626,-54.09684
2018-07-21 09:30:00+00:00,246.4731,13.03,13.29,47.84626,-54.09684
2018-07-21 09:40:00+00:00,244.0197,13.1,13.37,47.84626,-54.09684
2018-07-21 09:50:00+00:00,240.0397,13.17,13.53,47.84626,-54.09684
2018-07-21 10:00:00+00:00,229.0414,13.25,13.68,47.84626,-54.09684
2018-07-21 10:10:00+00:00,219.6714,13.3,13.76,47.84626,-54.09684
2018-07-21 10:20:00+00:00,217.6881,13.31,14.0,47.84626,-54.09684
2018-07-21 10:30:00+00:00,213.1481,13.39,14.16,47.84626,-54.09684
2018-07-21 10:40:00+00:00,206.0498,13.43,14.32,47.84626,-54.09684
2018-07-21 10:50:00+00:00,204.8765,13.4,14.56,47.84626,-54.09684
2018-07-21 11:00:00+00:00,205.1881,13.4,14.48,47.84626,-54.09684
2018-07-21 11:10:00+00:00,199.8898,13.53,14.48,47.84626,-54.09684
2018-07-21 11:20:00+00:00,200.5531,13.5,14.8,47.84626,-54.09684
2018-07-21 11:30:00+00:00,203.4948,13.6,14.72,47.84626,-54.09684
2018-07-21 11:40:00+00:00,197.6581,13.69,14.72,47.84626,-54.09684
2018-07-21 11:50:00+00:00,198.3731,13.7,14.72,47.84626,-54.09684
2018-07-21 12:00:00+00:00,201.9264,13.75,14.56,47.84626,-54.09684
2018-07-21 12:10:00+00:00,198.5714,13.79,14.56,47.84626,-54.09684
2018-07-21 12:20:00+00:00,197.5381,13.78,14.72,47.84626,-54.09684
2018-07-21 12:30:00+00:00,200.7764,13.8,14.64,47.84626,-54.09684
2018-07-21 12:40:00+00:00,201.9848,13.74,14.72,47.84626,-54.09684
2018-07-21 12:50:00+00:00,202.3981,13.7,14.64,47.84626,-54.09684
2018-07-21 13:00:00+00:00,205.3914,13.7,14.56,47.84626,-54.09684
2018-07-21 13:10:00+00:00,210.9881,13.6,14.56,47.84626,-54.09684
2018-07-21 13:20:00+00:00,213.4897,13.6,14.64,47.84626,-54.09684
2018-07-21 13:30:00+00:00,214.2347,13.4,14.64,47.84626,-54.09684
2018-07-21 13:40:00+00:00,215.3881,13.3,14.64,47.84626,-54.09684
2018-07-21 13:50:00+00:00,217.5064,13.4,14.72,47.84626,-54.09684
2018-07-21 14:00:00+00:00,221.3714,13.1,14.56,47.84626,-54.09684
2018-07-21 14:10:00+00:00,224.3398,13.1,14.56,47.84626,-54.09684
2018-07-21 14:20:00+00:00,225.0464,12.97,14.64,47.84626,-54.09684
2018-07-21 14:30:00+00:00,225.5414,12.99,14.56,47.84626,-54.09684
2018-07-21 14:40:00+00:00,230.4164,12.93,14.56,47.84626,-54.09684
2018-07-21 14:50:00+00:00,236.9731,12.9,14.56,47.84626,-54.09684
2018-07-21 15:00:00+00:00,241.4414,12.85,14.48,47.84626,-54.09684
2018-07-21 15:10:00+00:00,242.3615,12.8,14.4,47.84626,-54.09684
2018-07-21 15:20:00+00:00,247.7231,12.89,14.56,47.84626,-54.09684
2018-07-21 15:30:00+00:00,253.8181,13.12,14.48,47.84626,-54.09684
2018-07-21 15:40:00+00:00,257.858,13.2,14.48,47.84626,-54.09684
2018-07-21 15:50:00+00:00,260.4514,13.2,14.48,47.84626,-54.09684
2018-07-21 16:00:00+00:00,269.0931,13.2,14.4,47.84626,-54.09684
2018-07-21 16:10:00+00:00,275.1998,13.4,14.32,47.84626,-54.09684
2018-07-21 16:20:00+00:00,277.808,13.2,14.4,47.84626,-54.09684
2018-07-21 16:30:00+00:00,279.8547,13.1,14.4,47.84626,-54.09684
2018-07-21 16:40:00+00:00,287.7946,13.1,14.4,47.84626,-54.09684
2018-07-21 16:50:00+00:00,293.2114,13.2,14.4,47.84626,-54.09684
2018-07-21 17:00:00+00:00,293.9398,13.1,14.32,47.84626,-54.09684
2018-07-21 17:10:00+00:00,295.1263,13.17,14.24,47.84626,-54.09684
2018-07-21 17:20:00+00:00,301.1196,13.2,14.32,47.84626,-54.09684
2018-07-21 17:30:00+00:00,305.6179,13.07,14.32,47.84626,-54.09684
2018-07-21 17:40:00+00:00,306.9447,12.6,14.24,47.84626,-54.09684
2018-07-21 17:50:00+00:00,307.493,12.67,14.24,47.84626,-54.09684
2018-07-21 18:00:00+00:00,313.008,12.77,14.16,47.84626,-54.09684
2018-07-21 18:10:00+00:00,317.7213,13.0,14.08,47.84626,-54.09684
2018-07-21 18:20:00+00:00,319.2246,12.91,14.16,47.84626,-54.09684
2018-07-21 18:30:00+00:00,319.7963,12.8,14.16,47.84626,-54.09684
2018-07-21 18:40:00+00:00,319.2297,12.87,14.16,47.84626,-54.09684
2018-07-21 18:50:00+00:00,319.2813,12.8,14.16,47.84626,-54.09684
2018-07-21 19:00:00+00:00,318.8196,12.8,14.08,47.84626,-54.09684
2018-07-21 19:10:00+00:00,319.0797,12.15,14.0,47.84626,-54.09684
2018-07-21 19:20:00+00:00,318.2863,12.81,14.08,47.84626,-54.09684
2018-07-21 19:30:00+00:00,319.378,13.07,14.08,47.84626,-54.09684
2018-07-21 19:40:00+00:00,323.4179,13.16,14.08,47.84626,-54.09684
2018-07-21 19:50:00+00:00,323.5897,13.48,14.08,47.84626,-54.09684
2018-07-21 20:00:00+00:00,319.533,13.6,14.0,47.84626,-54.09684
2018-07-21 20:10:00+00:00,317.673,13.74,13.92,47.84626,-54.09684
2018-07-21 20:20:00+00:00,317.4946,13.79,14.0,47.84626,-54.09684
2018-07-21 20:30:00+00:00,312.5681,13.44,13.92,47.84626,-54.09684
2018-07-21 20:40:00+00:00,305.6547,13.46,13.92,47.84626,-54.09684
2018-07-21 20:50:00+00:00,299.3214,13.78,13.92,47.84626,-54.09684
2018-07-21 21:00:00+00:00,292.918,13.7,13.84,47.84626,-54.09684
2018-07-21 21:10:00+00:00,287.1431,13.5,13.76,47.84626,-54.09684
2018-07-21 21:20:00+00:00,283.998,13.5,13.76,47.84626,-54.09684
2018-07-21 21:30:00+00:00,280.0464,13.6,13.76,47.84626,-54.09684
2018-07-21 21:40:00+00:00,274.9497,13.69,13.68,47.84626,-54.09684
2018-07-21 21:50:00+00:00,274.3715,13.6,13.68,47.84626,-54.09684
2018-07-21 22:00:00+00:00,268.1097,13.8,13.68,47.84626,-54.09684
2018-07-21 22:10:00+00:00,260.8114,13.67,13.53,47.84626,-54.09684
2018-07-21 22:20:00+00:00,252.1431,13.9,13.44,47.84626,-54.09684
2018-07-21 22:30:00+00:00,244.6914,14.17,13.44,47.84626,-54.09684
2018-07-21 22:40:00+00:00,235.3831,14.3,13.44,47.84626,-54.09684
2018-07-21 22:50:00+00:00,227.4081,14.56,13.44,47.84626,-54.09684
2018-07-21 23:00:00+00:00,223.3915,15.2,13.29,47.84626,-54.09684
2018-07-21 23:10:00+00:00,222.8981,15.67,13.21,47.84626,-54.09684
2018-07-21 23:20:00+00:00,222.0115,16.05,13.21,47.84626,-54.09684
2018-07-21 23:30:00+00:00,219.7398,15.4,13.21,47.84626,-54.09684
2018-07-21 23:40:00+00:00,217.3497,15.63,13.21,47.84626,-54.09684
2018-07-21 23:50:00+00:00,216.6531,15.69,13.21,47.84626,-54.09684
